www.pogodaiklimat.ru

Погода и климат >> Архив погоды >> Иран >> Iranshahr


ПОГОДА в Iranshahr

  • Прогноз погоды в Iranshahr
  • Монитор погоды в Iranshahr
  • Климат города

АРХИВ ПОГОДЫ в Iranshahr

Время (UTC), дата Ветер
(напр.,м/с)
 
Видим.   Явления Облачность Т
(С)
Тd
(С)
f
(%)
Тe
(С)
Тes
(С)
Комфортность P
(гПа)
Po
(гПа)
Тmin
(С)
Tmax
(С)
R
(мм)
R24
(мм)
S
(см)
12 9.10 СЗ 7 20 км ясно +33.9 +1.1 12 +31 +31 жарко 1008.4 943.7
15 9.10 СЗ 5 12 км ясно +30.9 +1.4 15 +28 +28 жарко 1009.5 944.4 +35.6
18 9.10 штиль 0 12 км ясно +27.6 +0.7 17 +25 +25 комфорт 1010.2 945.5
21 9.10 штиль 0 12 км 4/0
[Ac trans Ci sp]
+25.1 -0.2 19 +24 +24 комфорт 1010.3 945.7
00 10.10 З 2 12 км ясно +22.0 -2.0 20 +21 +21 комфорт 1011.1 946.1
03 10.10 штиль 0 12 км ясно +22.2 -1.1 21 +21 +22 комфорт 1013.2 947.8 +19.7
06 10.10 штиль 0 15 км ясно +29.6 -0.7 14 +27 +41 жарко 1013.8 948.8
09 10.10 Ю 4 15 км ясно +33.2 +1.4 13 +30 +39 жарко 1009.7 945.1
12 10.10 СЗ 5 20 км ясно +33.5 -2.8 10 +30 +31 жарко 1009.1 944.2
15 10.10 С 4 15 км ясно +29.6 -5.6 10 +26 +26 жарко 1010.6 945.2 +34.3
18 10.10 штиль 0 12 км ясно +25.6 -9.1 9 +23 +23 комфорт 1011.6 946.5
21 10.10 штиль 0 12 км ясно +21.6 -12.2 9 +20 +20 1011.8 946.4
00 11.10 СВ 2 12 км ясно +17.9 -11.0 13 +18 +18 1012.2 946.6
03 11.10 СВ 2 15 км ясно +19.5 -11.2 11 +20 +20 1013.5 947.6 +16.5
06 11.10 ЮЗ 2 20 км ясно +27.9 -11.0 7 +24 +35 комфорт 1013.5 948.1
09 11.10 Ю 4 20 км ясно +32.8 -7.8 7 +29 +37 жарко 1010.4 945.3
12 11.10 З 6 20 км ясно +34.7 -6.7 7 +30 +32 жарко 1008.4 943.2
15 11.10 СЗ 3 12 км ясно +30.4 -9.9 7 +26 +26 жарко 1010.3 944.7 +35.5
18 11.10 В 3 12 км ясно +26.4 -11.9 7 +23 +23 комфорт 1011.3 946.1
21 11.10 В 3 12 км ясно +22.3 -11.7 9 +20 +20 1011.5 946.0
00 12.10 штиль 0 12 км ясно +18.7 -9.7 14 +18 +18 1011.8 946.5
03 12.10 С 3 15 км ясно +20.4 -10.8 11 +20 +20 1013.3 947.6 +17.8
06 12.10 Ю 2 20 км ясно +30.0 -9.6 7 +26 +37 жарко 1013.8 948.7
09 12.10 ЮЗ 5 20 км ясно +33.2 -4.4 9 +29 +36 жарко 1011.0 946.0
12 12.10 З 3 20 км ясно +34.9 -2.0 9 +31 +33 жарко 1009.7 944.6
15 12.10 З 4 12 км ясно +31.3 -1.5 12 +28 +28 жарко 1010.8 945.4 +35.8
18 12.10 ЮВ 3 12 км ясно +27.0 -2.0 15 +25 +25 комфорт 1011.4 946.5
21 12.10 В 4 12 км ясно +25.1 -6.4 12 +23 +23 комфорт 1011.5 946.5
00 13.10 штиль 0 12 км ясно +21.5 -6.1 15 +20 +20 1012.1 947.1
03 13.10 С 2 20 км ясно +20.9 -4.6 18 +21 +22 комфорт 1014.2 948.6 +19.3
06 13.10 СВ 3 20 км ясно +31.5 -2.5 11 +28 +37 жарко 1014.4 949.5
09 13.10 З 3 20 км ясно +34.5 -0.9 10 +31 +42 жарко 1012.1 947.5
12 13.10 ЮЗ 5 20 км 3/3 1200 м
[Cu hum]
+35.2 -0.2 11 +32 +33 жарко 1010.5 945.7
15 13.10 З 3 12 км ясно +32.1 -0.7 12 +29 +29 жарко 1011.6 946.3 +35.9
18 13.10 С 2 12 км ясно +28.7 -1.3 14 +26 +26 жарко 1012.2 947.6
21 13.10 С 3 12 км ясно +25.5 -1.8 16 +23 +23 комфорт 1012.2 947.4
00 14.10 В 2 12 км ясно +23.4 -2.2 18 +22 +22 комфорт 1012.8 948.0
03 14.10 штиль 0 12 км 1/1 1200 м
[Sc]
+22.6 -1.1 21 +22 +22 комфорт 1014.9 949.6 +21.7
06 14.10 ЮЗ 4 12 км ясно +28.5 +2.6 19 +27 +34 жарко 1016.0 950.9
09 14.10 ЮЗ 3 12 км ясно +33.3 +3.4 15 +30 +41 жарко 1012.9 948.2
12 14.10 З 5 12 км 1/1 1000 м
[Sc diur, vesp]
+34.1 +3.1 14 +31 +32 жарко 1011.1 946.4
15 14.10 З 4 12 км ясно +31.1 +2.9 17 +29 +29 жарко 1012.3 947.1 +34.9
18 14.10 С 2 12 км ясно +27.1 +2.2 20 +25 +25 комфорт 1012.9 947.8
21 14.10 штиль 0 12 км ясно +24.5 +2.5 24 +24 +24 комфорт 1012.5 947.6
00 15.10 С 2 12 км ясно +21.8 +1.1 25 +21 +21 комфорт 1012.7 947.7
03 15.10 штиль 0 15 км ясно +21.8 +1.4 26 +21 +22 комфорт 1014.8 949.3 +20.2
06 15.10 штиль 0 15 км 3/0
[Ac trans Ci sp]
+29.5 +4.0 20 +28 +40 жарко 1015.2 950.1
09 15.10 Ю 3 15 км 4/1 1200 м
[Cu hum Ci sp]
+32.5 +5.5 18 +30 +39 жарко 1012.0 947.2
12 15.10 З 3 15 км 5/1 1200 м
[Cu med, cong Cs]
+33.1 +4.8 17 +31 +32 жарко 1010.6 945.7
15 15.10 штиль 0 12 км 3/1 1200 м
[Sc diur, vesp Ci sp]
+29.4 +4.2 20 +28 +28 жарко 1011.6 946.2 +33.7
18 15.10 штиль 0 12 км ясно +26.0 +3.1 23 +25 +25 комфорт 1012.0 947.0
21 15.10 З 2 12 км 4/0
[Cs]
+26.8 +3.6 22 +25 +25 комфорт 1011.1 946.6
00 16.10 штиль 0 12 км ясно +23.6 +4.4 29 +23 +23 комфорт 1011.2 946.4
03 16.10 Ю 2 10 км 5/1 1200 м
[Sc Ac As Ci sp]
+23.1 +3.8 28 +23 +23 комфорт 1013.8 948.4 +22.3
06 16.10 В 2 5000 м мгла 6/0
[Ac As]
+29.1 +6.1 23 +28 +34 жарко 1014.8 949.6
09 16.10 ЮЗ 3 8000 м мгла 4/1 1200 м
[Cu hum Ac As]
+32.5 +6.2 19 +30 +38 жарко 1011.4 946.9

 

Местоположение метеостанции Iranshahr (Иран): широта 27.20 долгота 60.70 высота над уровнем моря 591 м.

В архиве по умолчанию представлена погода в Iranshahr за последнюю неделю. Архивные данные за месяц целиком и за предыдущие месяцы, начиная с января 2011 года, Вы можете получить, выбрав интересующий диапазон дат из раскрывающегося списка и нажав кнопку "Ввод!".


*Определитесь, кто Вы:
робот инопланетянин человек

Внимание! Время в таблицах - всемирное. Для получения местного времени необходимо прибавить поправку, которая в Iranshahr равна 3.5 ч.

Смотрите также архив погоды в соседних городах и на ближайших метеорологических станциях:

Погода в Saravan (Иран) (162 км)
Погода в Chah Bahar Airport (Иран) (214 км)
Погода в Zahedan (Иран) (253 км)
Погода в Jiwani (Пакистан) (261 км)
Погода в Nokkundi (Пакистан) (270 км)
Погода в Gawadar (Пакистан) (282 км)
Погода в Kahnuj (Иран) (308 км)
Погода в Bam (Иран) (309 км)
Погода в Panjgur (Пакистан) (338 км)
Погода в Jask (Иран) (340 км)

Пояснения к столбцам:

Ветер - указаны скорость ветра в м/с - средняя за 10 мин, порывы в срок и между сроками (в фигурных скобках) и направление, откуда дует ветер: С - северный, СВ - северо-восточный, В - восточный, ЮВ - юго-восточный, Ю - южный, ЮЗ - юго-западный, З - западный, СЗ - северо-западный.
Видимость - горизонтальная дальность видимости в метрах или километрах. При видимости от 1 до 10 км при отсутствии осадков обычно наблюдается дымка, при ухудшении видимости до 1 км и менее - туман. В сухую погоду видимость может ухудшаться дымом, пылью или мглою.
Явления - указаны атмосферные явления, наблюдавшиеся в срок или в последний час перед сроком; фигурными скобками обозначены явления, наблюдавшиеся между сроками (за 1-3 часа до срока); квадратными скобками обозначены град или гололедные отложения с указанием их диаметра в мм.
Облачность - указаны через наклонную черту общая и нижняя облачность в баллах и высота нижней границы облаков в метрах; квадратными скобками обозначены формы облаков: Ci - перистые, Cs - перисто-слоистые, Cc - перисто-кучевые, Ac - высококучевые, As - высокослоистые, Sc - слоисто-кучевые, Ns - слоисто-дождевые, Cu - кучевые, Cb - кучево-дождевые. Подробнее классификацию облаков см. в Атласе облаков (PDF).
T - Температура воздуха - температура, измеренная на высоте 2 м над землей.
Td - Температура точки росы - температура, при понижении до которой содержащийся в воздухе водяной пар достигнет насыщения.
f - Относительная влажность воздуха - влажноcть воздуха, измеренная на высоте 2 м над землей.
Te - Эффективная температура - температура, которую ощущает одетый по сезону человек в тени. Характеристика душности погоды. При расчете учитывается влияние влажности воздуха и скорости ветра на теплоощущения человека.
Tes - Эффективная температура на солнце - температура, которую ощущает человек, с поправкой на солнечный нагрев. Характеристика знойности погоды. Зависит от высоты солнца над горизонтом, облачности и скорости ветра. Ночью, в пасмурную погоду, а также при ветре 12 м/с и более поправка равна нулю.
P - Атмосферное давление - приведенное к уровню моря атмосферное давление.
Po - Атмосферное давление - измеренное на уровне метеостанции атмосферное давление.
Tmin - Минимальная температура - минимум температуры воздуха на высоте 2 м над землей.
Tmax - Максимальная температура - максимум температуры воздуха на высоте 2 м над землей.
R - Количество осадков - Количество выпавших осадков за период времени, мм. При наведении курсора мыши на число - период времени, за который выпало указанное количество осадков.
R24 - Количество осадков - Количество выпавших осадков за 24 часа, мм.
S - Снежный покров - Высота снежного покрова, см. При наведении курсора мыши на число - состояние снежного покрова и степень покрытия местности в баллах.